www.pogodaiklimat.ru

Погода и климат >> Архив погоды >> Украина >> Винница


АРХИВ ПОГОДЫ в Виннице

Время (UTC), дата Ветер
(напр.,м/с)
 
Видим.   Явления Облачность Т
(С)
Тd
(С)
f
(%)
Тe
(С)
Тes
(С)
Комфортность P
(гПа)
Po
(гПа)
Тmin
(С)
Tmax
(С)
R
(мм)
R24
(мм)
S
(см)
12 15.11 З 2 13 км 3/3 600 м
[Sc]
+5.1 -1.1 64 +3 +4 по сезону 1027.9 991.2
15 15.11 штиль 0 13 км 3/0
[Ci fib]
+2.8 -1.1 75 +2 +2 по сезону 1028.2 991.2
18 15.11 штиль 0 13 км ясно +1.3 -1.6 81 0 0 по сезону 1029.3 992.1 +5.7
21 15.11 З 2 13 км ясно +0.4 -1.3 88 -3 -3 по сезону 1029.7 992.3
00 16.11 З 2 13 км ясно -0.7 -2.0 91 -5 -5 по сезону 1029.6 992.1
03 16.11 ЮЗ 2 6000 м дымка ясно -1.6 -2.7 92 -6 -6 по сезону 1030.2 992.5
06 16.11 ЮЗ 2 4800 м дымка ясно -1.6 -2.4 94 -6 -6 по сезону 1030.8 993.1 -2.0
09 16.11 ЮЗ 2 13 км 4/0
[Ci fib]
+3.7 0.0 77 +1 +3 по сезону 1030.4 993.5
12 16.11 СЗ 2 13 км 4/4 1000 м
[Sc]
+5.1 -0.2 69 +3 +4 по сезону 1029.4 992.7
15 16.11 ЮЗ 2 13 км 5/3 1000 м
[Sc Ci fib]
+3.4 -1.0 73 +1 +1 по сезону 1029.1 992.2
18 16.11 ЮЗ 2 9000 м дымка ясно +0.6 -1.1 88 -3 -3 по сезону 1029.4 992.1 +5.6
21 16.11 ЮЗ 2 6000 м дымка ясно -0.3 -1.8 90 -4 -4 по сезону 1029.5 992.0
00 17.11 штиль 0 4300 м дымка 6/4 600 м
[Sc Ac trans]
-1.2 -2.2 93 -2 -2 по сезону 1029.1 991.5
03 17.11 Ю 2 8000 м дымка 10/6 660 м
[Sc Ac und]
+0.1 -1.7 88 -4 -4 по сезону 1027.9 990.6
06 17.11 ЮВ 2 7000 м дымка 10/8 600 м
[Sc Ac und]
0.0 -1.2 92 -4 -4 по сезону 1027.4 990.1 -1.6
09 17.11 ЮВ 4 12 км 10/6 500 м
[St Ac und]
+2.2 -0.6 82 -3 -2 по сезону 1026.4 989.4
12 17.11 Ю 5 13 км 10/10 500 м
[St]
+2.4 -1.2 77 -3 -3 прохладно 1025.0 988.1
15 17.11 ЮВ 3 13 км 10/10 450 м
[St]
+2.7 -0.3 81 -1 -1 по сезону 1023.8 987.0
18 17.11 Ю 2 11 км 10/10 540 м
[St]
+2.5 +0.1 84 -1 -1 по сезону 1023.5 986.6 +3.3
21 17.11 Ю 2 9000 м дымка 10/10 420 м
[St]
+2.2 +0.6 89 -1 -1 по сезону 1023.2 986.3
00 18.11 штиль 0 6000 м дымка 10/10 360 м
[St]
+2.2 +0.9 91 +1 +1 тепло 1022.3 985.5
03 18.11 Ю 2 5000 м дымка 10/10 300 м
[St]
+2.1 +1.1 93 -1 -1 по сезону 1021.2 984.4
06 18.11 штиль 0 3000 м дымка 10/10 210 м
[St]
+1.9 +1.1 94 +1 +1 тепло 1020.2 983.4 +1.8
09 18.11 ЮВ 2 3200 м слабый дождь 10/8 210 м
[Frnb As op]
+2.7 +1.9 94 -1 -1 по сезону 1019.9 983.2
12 18.11 ЮВ 2 7000 м дымка {дождь} 10/6 540 м
[Sc Ac und]
+3.9 +2.4 90 +1 +1 по сезону 1017.4 981.0
15 18.11 ЮВ 2 5000 м слабый ливневой дождь 10/8 570 м
[Cb cap Ac und]
+4.0 +2.8 92 +1 +1 по сезону 1016.2 979.8
18 18.11 Ю 2 3000 м слабый ливневой дождь 10/10 300 м
[Cb cap]
+3.2 +2.4 94 0 0 по сезону 1015.0 978.6 +4.5 1
21 18.11 Ю 2 1800 м слабый дождь {ливн. осадки} 10/9 150 м
[Frnb As op]
+3.1 +2.6 97 -0 -0 по сезону 1013.7 977.3
00 19.11 ЮЗ 2 1300 м слабый дождь {ливн. осадки} 10/9 150 м
[Frnb As op]
+3.4 +2.9 97 0 0 по сезону 1012.1 975.8
03 19.11 ЮЗ 2 2400 м слабый дождь 10/9 240 м
[Frnb As op]
+3.5 +2.7 94 0 0 по сезону 1010.7 974.4
06 19.11 ЮЗ 2 6000 м в посл. час дождь 10/8 300 м
[Frnb As op]
+3.1 +2.1 93 -0 -0 по сезону 1010.4 974.1 +3.0 3
09 19.11 З 3 8000 м дымка 10/8 300 м
[St Ac und]
+3.9 +2.7 92 0 0 по сезону 1010.5 974.3
12 19.11 СЗ 3 13 км 10/10 330 м
[St]
+3.8 +1.5 85 0 0 по сезону 1010.1 973.9
15 19.11 штиль 0 13 км 9/8 600 м
[Sc Ac trans]
+2.9 +0.8 86 +2 +2 по сезону 1010.6 974.3
18 19.11 штиль 0 7000 м дымка 3/0
[Ci fib]
+1.6 0.0 89 0 0 по сезону 1011.4 974.9 +4.2
21 19.11 ЮЗ 2 2600 м дымка ясно +0.1 -0.8 94 -4 -4 по сезону 1012.2 975.4
00 20.11 штиль 0 4000 м дымка ясно -0.2 -1.1 94 -2 -2 по сезону 1011.8 975.0
03 20.11 штиль 0 1100 м дымка ясно -2.4 -3.0 96 -4 -4 по сезону 1011.7 974.6
06 20.11 ЮВ 2 3000 м в посл. час туман 3/0
[Ac trans]
-4.6 -5.2 96 -9 -9 прохладно 1012.0 974.6 -4.9
09 20.11 Ю 3 13 км 4/0
[Ac trans]
+2.2 -0.3 84 -2 -1 по сезону 1011.4 974.9
12 20.11 З 3 13 км 6/3 600 м
[Sc Ci fib]
+3.6 -0.8 73 0 +1 по сезону 1010.7 974.4
15 20.11 ЮЗ 2 13 км 6/3 1000 м
[Sc Ci fib]
+1.7 -0.8 83 -2 -2 по сезону 1011.1 974.6
18 20.11 З 2 13 км 10/6 870 м
[Sc Ac und]
+1.4 -1.1 83 -2 -2 по сезону 1011.2 974.6 +4.6
21 20.11 З 4 13 км 10/4 600 м
[Sc Ac und]
+1.4 -0.9 85 -4 -4 по сезону 1011.4 974.8
00 21.11 З 5 13 км 10/5 420 м
[St Ac und]
+1.1 -1.8 81 -5 -5 по сезону 1011.8 975.2
03 21.11 З 4 13 км 10/8 750 м
[Sc Ac und]
+0.8 -2.5 79 -4 -4 по сезону 1011.7 975.0
06 21.11 З 3 13 км 9/4 600 м
[Sc Ac trans]
+0.2 -2.5 82 -4 -4 по сезону 1012.5 975.7 +0.2
09 21.11 СЗ 4 13 км 9/4 600 м
[Cb cap Ac trans]
+0.9 -1.7 83 -4 -4 по сезону 1013.3 976.6
12 21.11 З 3 13 км слабый ливневой снег 8/4 600 м
[Cb cap Ac trans]
+2.6 -2.6 69 -1 -1 по сезону 1012.5 976.0
15 21.11 СЗ 4 13 км в посл. час ливневой снег 9/4 600 м
[Cb cap Ac trans]
+0.3 -1.1 90 -5 -5 прохладно 1013.8 977.0
18 21.11 СЗ 3 13 км {ливн. осадки} 10/6 800 м
[Sc Ac und]
+0.1 -2.3 84 -5 -5 по сезону 1014.5 977.6 +2.8 0.2
21 21.11 З 3 13 км 10/6 960 м
[Sc Ac und]
+0.2 -1.9 86 -4 -4 по сезону 1014.6 977.8
00 22.11 З 3 13 км 9/5 840 м
[Sc Ac trans]
-0.2 -1.9 88 -5 -5 по сезону 1015.0 978.1
03 22.11 З 2 13 км 9/5 840 м
[Sc Ac trans]
-0.7 -2.9 85 -4 -4 по сезону 1015.4 978.4
06 22.11 З 2 13 км 6/3 600 м
[Sc Ac trans]
-1.5 -3.8 84 -5 -5 по сезону 1015.8 978.7 -1.6 <0.5

 

Местоположение метеостанции Винница (Винницкая область, Украина): широта 49.23 долгота 28.60 высота над уровнем моря 298 м.

В архиве по умолчанию представлена погода в Виннице за последнюю неделю. Архивные данные за месяц целиком и за предыдущие месяцы, начиная с января 2011 года, Вы можете получить, выбрав интересующий диапазон дат из раскрывающегося списка и нажав кнопку "Ввод!".

Внимание! Время в таблицах - всемирное. Для получения местного времени необходимо прибавить поправку, которая в Виннице равна 2 ч.

Смотрите также архив погоды в соседних городах и на ближайших метеорологических станциях:

Погода в Жмеринке (Винницкая область, Украина) (42 км)
Погода в Белополе (Винницкая область, Украина) (70 км)
Погода в Гайсине (Винницкая область, Украина) (75 км)
Погода в Хмельнике (Винницкая область, Украина) (76 км)
Погода в Могилев-Подольском (Винницкая область, Украина) (105 км)
Погода в Новой Ушице (Хмельницкая область, Украина) (106 км)
Погода в Жашкове (Черкасская область, Украина) (109 км)
Погода в Житомире (Житомирская область, Украина) (112 км)
Погода в Новоднестровске (Черновицкая область, Украина) (112 км)
Погода в Сороках (Молдова) (117 км)

Пояснения к столбцам:

Ветер - указаны скорость ветра в м/с - средняя за 10 мин, порывы в срок и между сроками (в фигурных скобках) и направление, откуда дует ветер: С - северный, СВ - северо-восточный, В - восточный, ЮВ - юго-восточный, Ю - южный, ЮЗ - юго-западный, З - западный, СЗ - северо-западный.
Видимость - горизонтальная дальность видимости в метрах или километрах. При видимости от 1 до 10 км при отсутствии осадков обычно наблюдается дымка, при ухудшении видимости до 1 км и менее - туман. В сухую погоду видимость может ухудшаться дымом, пылью или мглою.
Явления - указаны атмосферные явления, наблюдавшиеся в срок или в последний час перед сроком; фигурными скобками обозначены явления, наблюдавшиеся между сроками (за 1-3 часа до срока); квадратными скобками обозначены град или гололедные отложения с указанием их диаметра в мм.
Облачность - указаны через наклонную черту общая и нижняя облачность в баллах и высота нижней границы облаков в метрах; квадратными скобками обозначены формы облаков: Ci - перистые, Cs - перисто-слоистые, Cc - перисто-кучевые, Ac - высококучевые, As - высокослоистые, Sc - слоисто-кучевые, Ns - слоисто-дождевые, Cu - кучевые, Cb - кучево-дождевые. Подробнее классификацию облаков см. в Атласе облаков (PDF).
T - Температура воздуха - температура, измеренная на высоте 2 м над землей.
Td - Температура точки росы - температура, при понижении до которой содержащийся в воздухе водяной пар достигнет насыщения.
f - Относительная влажность воздуха - влажноcть воздуха, измеренная на высоте 2 м над землей.
Te - Эффективная температура - температура, которую ощущает одетый по сезону человек в тени. Характеристика душности погоды. При расчете учитывается влияние влажности воздуха и скорости ветра на теплоощущения человека.
Tes - Эффективная температура на солнце - температура, которую ощущает человек, с поправкой на солнечный нагрев. Характеристика знойности погоды. Зависит от высоты солнца над горизонтом, облачности и скорости ветра. Ночью, в пасмурную погоду, а также при ветре 12 м/с и более поправка равна нулю.
P - Атмосферное давление - приведенное к уровню моря атмосферное давление.
Po - Атмосферное давление - измеренное на уровне метеостанции атмосферное давление.
Tmin - Минимальная температура - минимум температуры воздуха на высоте 2 м над землей.
Tmax - Максимальная температура - максимум температуры воздуха на высоте 2 м над землей.
R - Количество осадков - Количество выпавших осадков за период времени, мм. При наведении курсора мыши на число - период времени, за который выпало указанное количество осадков.
R24 - Количество осадков - Количество выпавших осадков за 24 часа, мм.
S - Снежный покров - Высота снежного покрова, см. При наведении курсора мыши на число - состояние снежного покрова и степень покрытия местности в баллах.